Wetterdaten: Woche 02.12.13 - 08.12.13 (KW49)
Datum Zeit Temperatur Luftfeuchte Luftdruck Niederschlag Windrichtung Sonnenschein Solar Wind
02.12.2013 00:00 1,3 C 85 % 1028,9 hPa 0,0 l/m O 0,00 h 0 W/m 20,4 km/h (4 Bft)
02.12.2013 01:00 1,3 C 85 % 1028,8 hPa 0,0 l/m O-NO 0,00 h 0 W/m 13,3 km/h (3 Bft)
02.12.2013 02:00 1,2 C 87 % 1028,8 hPa 0,0 l/m O-NO 0,00 h 0 W/m 13,0 km/h (3 Bft)
02.12.2013 03:00 1,2 C 87 % 1028,6 hPa 0,0 l/m O-NO 0,00 h 0 W/m 12,8 km/h (3 Bft)
02.12.2013 04:00 1,2 C 87 % 1028,7 hPa 0,0 l/m O-NO 0,00 h 0 W/m 14,8 km/h (3 Bft)
02.12.2013 05:00 1,2 C 87 % 1028,9 hPa 0,0 l/m NO 0,00 h 0 W/m 20,1 km/h (4 Bft)
02.12.2013 06:00 1,3 C 87 % 1029,1 hPa 0,0 l/m O-NO 0,00 h 0 W/m 20,0 km/h (4 Bft)
02.12.2013 07:00 1,2 C 86 % 1029,1 hPa 0,0 l/m O-NO 0,00 h 5 W/m 17,6 km/h (3 Bft)
02.12.2013 08:00 0,8 C 88 % 1029,6 hPa 0,0 l/m NO 0,08 h 20 W/m 17,0 km/h (3 Bft)
02.12.2013 09:00 0,9 C 88 % 1030,1 hPa 0,0 l/m O-NO 0,33 h 91 W/m 18,2 km/h (3 Bft)
02.12.2013 10:00 2,0 C 84 % 1030,1 hPa 0,0 l/m O-NO 1,00 h 239 W/m 21,2 km/h (4 Bft)
02.12.2013 11:00 3,3 C 79 % 1029,8 hPa 0,0 l/m O 1,00 h 309 W/m 22,8 km/h (4 Bft)
02.12.2013 12:00 4,2 C 76 % 1029,4 hPa 0,0 l/m O-SO 1,00 h 337 W/m 23,6 km/h (4 Bft)
02.12.2013 13:00 4,4 C 75 % 1029,3 hPa 0,0 l/m O 0,83 h 271 W/m 27,0 km/h (4 Bft)
02.12.2013 14:00 4,2 C 78 % 1029,1 hPa 0,0 l/m O-NO 0,92 h 194 W/m 23,6 km/h (4 Bft)
02.12.2013 15:00 4,0 C 79 % 1029,3 hPa 0,0 l/m O-NO 0,92 h 88 W/m 17,8 km/h (3 Bft)
02.12.2013 16:00 3,0 C 82 % 1029,6 hPa 0,0 l/m O-NO 0,08 h 12 W/m 17,8 km/h (3 Bft)
02.12.2013 17:00 2,1 C 85 % 1029,9 hPa 0,0 l/m O-NO 0,00 h 0 W/m 14,9 km/h (3 Bft)
02.12.2013 18:00 1,4 C 88 % 1030,0 hPa 0,0 l/m O-NO 0,00 h 0 W/m 11,4 km/h (2 Bft)
02.12.2013 19:00 1,2 C 88 % 1029,8 hPa 0,0 l/m O-NO 0,00 h 0 W/m 15,6 km/h (3 Bft)
02.12.2013 20:00 0,6 C 90 % 1029,6 hPa 0,0 l/m O-NO 0,00 h 0 W/m 6,0 km/h (2 Bft)
02.12.2013 21:00 -0,4 C 92 % 1029,4 hPa 0,0 l/m N 0,00 h 0 W/m 2,9 km/h (1 Bft)
02.12.2013 22:00 -0,8 C 94 % 1029,3 hPa 0,0 l/m O-NO 0,00 h 0 W/m 6,0 km/h (2 Bft)
02.12.2013 23:00 -0,3 C 94 % 1029,1 hPa 0,0 l/m O-NO 0,00 h 0 W/m 11,8 km/h (2 Bft)
03.12.2013 00:00 -0,2 C 93 % 1029,0 hPa 0,0 l/m O-NO 0,00 h 0 W/m 11,0 km/h (2 Bft)
03.12.2013 01:00 -0,3 C 93 % 1029,1 hPa 0,0 l/m O-NO 0,00 h 0 W/m 12,8 km/h (3 Bft)
03.12.2013 02:00 -0,6 C 93 % 1029,0 hPa 0,0 l/m NO 0,00 h 0 W/m 8,3 km/h (2 Bft)
03.12.2013 03:00 -1,0 C 93 % 1028,8 hPa 0,0 l/m N 0,00 h 0 W/m 3,5 km/h (1 Bft)
03.12.2013 04:00 -1,6 C 93 % 1028,9 hPa 0,0 l/m N 0,00 h 0 W/m 2,3 km/h (1 Bft)
03.12.2013 05:00 -1,5 C 94 % 1029,0 hPa 0,0 l/m NO 0,00 h 0 W/m 2,3 km/h (1 Bft)
03.12.2013 06:00 -1,7 C 94 % 1029,4 hPa 0,0 l/m NO 0,00 h 0 W/m 3,3 km/h (1 Bft)
03.12.2013 07:00 -1,8 C 94 % 1029,6 hPa 0,0 l/m W-SW 0,00 h 0 W/m 5,6 km/h (1 Bft)
03.12.2013 08:00 -1,9 C 95 % 1029,8 hPa 0,0 l/m W-SW 0,00 h 11 W/m 7,9 km/h (2 Bft)
03.12.2013 09:00 -1,8 C 95 % 1029,9 hPa 0,0 l/m W-SW 0,00 h 39 W/m 8,6 km/h (2 Bft)
03.12.2013 10:00 -1,3 C 96 % 1030,1 hPa 0,0 l/m W 0,00 h 56 W/m 7,0 km/h (2 Bft)
03.12.2013 11:00 -0,6 C 95 % 1029,7 hPa 0,0 l/m SW 0,00 h 96 W/m 6,3 km/h (2 Bft)
03.12.2013 12:00 -0,1 C 93 % 1029,4 hPa 0,0 l/m SW 0,25 h 160 W/m 6,6 km/h (2 Bft)
03.12.2013 13:00 0,7 C 91 % 1028,8 hPa 0,0 l/m S-SW 0,67 h 219 W/m 9,7 km/h (2 Bft)
03.12.2013 14:00 0,1 C 92 % 1028,7 hPa 0,0 l/m S-SW 0,00 h 73 W/m 10,1 km/h (2 Bft)
03.12.2013 15:00 -0,4 C 94 % 1028,4 hPa 0,0 l/m S-SW 0,00 h 31 W/m 9,5 km/h (2 Bft)
03.12.2013 16:00 -0,8 C 95 % 1028,6 hPa 0,0 l/m S-SW 0,00 h 9 W/m 7,5 km/h (2 Bft)
03.12.2013 17:00 -1,1 C 95 % 1028,9 hPa 0,0 l/m S-SW 0,00 h 0 W/m 7,1 km/h (2 Bft)
03.12.2013 18:00 -1,6 C 96 % 1028,8 hPa 0,0 l/m S-SW 0,00 h 0 W/m 5,7 km/h (1 Bft)
03.12.2013 19:00 -1,8 C 96 % 1028,8 hPa 0,0 l/m S-SW 0,00 h 0 W/m 7,3 km/h (2 Bft)
03.12.2013 20:00 -1,9 C 97 % 1028,7 hPa 0,0 l/m S-SW 0,00 h 0 W/m 10,5 km/h (2 Bft)
03.12.2013 21:00 -2,1 C 97 % 1028,7 hPa 0,0 l/m SW 0,00 h 0 W/m 9,8 km/h (2 Bft)
03.12.2013 22:00 -2,3 C 97 % 1028,6 hPa 0,0 l/m SW 0,00 h 0 W/m 5,6 km/h (1 Bft)
03.12.2013 23:00 -2,2 C 97 % 1028,4 hPa 0,0 l/m SW 0,00 h 0 W/m 5,3 km/h (1 Bft)
04.12.2013 00:00 -2,0 C 97 % 1028,2 hPa 0,0 l/m SW 0,00 h 0 W/m 5,6 km/h (1 Bft)
04.12.2013 01:00 -1,9 C 97 % 1028,0 hPa 0,0 l/m SW 0,00 h 0 W/m 7,1 km/h (2 Bft)
04.12.2013 02:00 -1,9 C 98 % 1028,1 hPa 0,0 l/m S-SW 0,00 h 0 W/m 8,9 km/h (2 Bft)
04.12.2013 03:00 -1,9 C 98 % 1027,9 hPa 0,0 l/m SW 0,00 h 0 W/m 6,5 km/h (2 Bft)
04.12.2013 04:00 -2,0 C 98 % 1027,7 hPa 0,0 l/m SW 0,00 h 0 W/m 11,0 km/h (2 Bft)
04.12.2013 05:00 -2,1 C 98 % 1027,6 hPa 0,0 l/m SW 0,00 h 0 W/m 11,4 km/h (2 Bft)
04.12.2013 06:00 -2,1 C 98 % 1027,4 hPa 0,0 l/m S-SW 0,00 h 0 W/m 11,4 km/h (2 Bft)
04.12.2013 07:00 -2,0 C 98 % 1027,5 hPa 0,0 l/m SW 0,00 h 0 W/m 7,9 km/h (2 Bft)
04.12.2013 08:00 -1,9 C 99 % 1027,6 hPa 0,0 l/m S-SW 0,00 h 13 W/m 10,3 km/h (2 Bft)
04.12.2013 09:00 -1,9 C 98 % 1027,8 hPa 0,0 l/m S-SW 0,00 h 60 W/m 9,9 km/h (2 Bft)
04.12.2013 10:00 -1,5 C 98 % 1028,2 hPa 0,0 l/m S-SW 0,00 h 101 W/m 6,8 km/h (2 Bft)
04.12.2013 11:00 -1,0 C 98 % 1027,8 hPa 0,0 l/m S-SW 0,17 h 167 W/m 8,6 km/h (2 Bft)
04.12.2013 12:00 -0,6 C 97 % 1027,5 hPa 0,0 l/m S-SW 0,00 h 127 W/m 5,5 km/h (1 Bft)
04.12.2013 13:00 -0,4 C 97 % 1027,4 hPa 0,0 l/m S-SW 0,08 h 110 W/m 3,1 km/h (1 Bft)
04.12.2013 14:00 0,6 C 96 % 1027,1 hPa 0,0 l/m S-SW 0,83 h 177 W/m 3,1 km/h (1 Bft)
04.12.2013 15:00 1,2 C 94 % 1027,1 hPa 0,0 l/m S-SW 0,92 h 79 W/m 1,7 km/h (1 Bft)
04.12.2013 16:00 0,1 C 95 % 1027,4 hPa 0,0 l/m N 0,33 h 11 W/m 0,0 km/h (0 Bft)
04.12.2013 17:00 -0,8 C 96 % 1028,2 hPa 0,0 l/m N 0,00 h 0 W/m 0,9 km/h (0 Bft)
04.12.2013 18:00 -1,0 C 97 % 1028,7 hPa 0,0 l/m N 0,00 h 0 W/m 0,8 km/h (0 Bft)
04.12.2013 19:00 -1,4 C 97 % 1029,2 hPa 0,0 l/m N 0,00 h 0 W/m 0,5 km/h (0 Bft)
04.12.2013 20:00 -1,8 C 97 % 1029,5 hPa 0,0 l/m N 0,00 h 0 W/m 0,3 km/h (0 Bft)
04.12.2013 21:00 -2,0 C 97 % 1029,8 hPa 0,0 l/m N 0,00 h 0 W/m 0,0 km/h (0 Bft)
04.12.2013 22:00 -1,8 C 97 % 1030,1 hPa 0,0 l/m N 0,00 h 0 W/m 0,7 km/h (0 Bft)
04.12.2013 23:00 -1,7 C 97 % 1029,8 hPa 0,0 l/m S-SW 0,00 h 0 W/m 2,3 km/h (1 Bft)
05.12.2013 00:00 -1,2 C 97 % 1030,2 hPa 0,0 l/m S-SW 0,00 h 0 W/m 4,5 km/h (1 Bft)
05.12.2013 01:00 -0,6 C 98 % 1030,4 hPa 0,0 l/m N 0,00 h 0 W/m 1,6 km/h (1 Bft)
05.12.2013 02:00 -0,5 C 98 % 1030,7 hPa 0,0 l/m N 0,00 h 0 W/m 2,4 km/h (1 Bft)
05.12.2013 03:00 -0,3 C 98 % 1030,6 hPa 0,0 l/m S-SW 0,00 h 0 W/m 5,5 km/h (1 Bft)
05.12.2013 04:00 -0,2 C 98 % 1030,2 hPa 0,0 l/m S-SW 0,00 h 0 W/m 4,9 km/h (1 Bft)
05.12.2013 05:00 -0,1 C 98 % 1029,9 hPa 0,0 l/m S-SW 0,00 h 0 W/m 1,6 km/h (1 Bft)
05.12.2013 06:00 -0,1 C 98 % 1029,6 hPa 0,0 l/m N 0,00 h 0 W/m 0,5 km/h (0 Bft)
05.12.2013 07:00 0,1 C 98 % 1029,1 hPa 0,0 l/m S-SW 0,00 h 0 W/m 6,0 km/h (2 Bft)
05.12.2013 08:00 0,2 C 98 % 1028,7 hPa 0,0 l/m S-SW 0,00 h 11 W/m 7,5 km/h (2 Bft)
05.12.2013 09:00 0,4 C 98 % 1028,6 hPa 0,0 l/m S-SW 0,00 h 31 W/m 7,6 km/h (2 Bft)
05.12.2013 10:00 1,0 C 98 % 1028,1 hPa 0,0 l/m S-SW 0,00 h 74 W/m 7,0 km/h (2 Bft)
05.12.2013 11:00 1,7 C 95 % 1027,1 hPa 0,0 l/m S-SW 0,00 h 88 W/m 10,0 km/h (2 Bft)
05.12.2013 12:00 2,4 C 92 % 1025,8 hPa 0,0 l/m SW 0,25 h 178 W/m 14,8 km/h (3 Bft)
05.12.2013 13:00 3,2 C 90 % 1024,5 hPa 0,0 l/m S-SW 0,83 h 263 W/m 13,6 km/h (3 Bft)
05.12.2013 14:00 3,8 C 87 % 1023,4 hPa 0,0 l/m W-SW 1,00 h 180 W/m 19,4 km/h (3 Bft)
05.12.2013 15:00 3,3 C 88 % 1022,4 hPa 0,0 l/m W-SW 0,42 h 62 W/m 20,0 km/h (4 Bft)
05.12.2013 16:00 2,6 C 89 % 1021,9 hPa 0,0 l/m SW 0,08 h 9 W/m 19,4 km/h (3 Bft)
05.12.2013 17:00 2,7 C 88 % 1021,4 hPa 0,0 l/m W-SW 0,00 h 0 W/m 25,2 km/h (4 Bft)
05.12.2013 18:00 3,3 C 86 % 1020,6 hPa 0,0 l/m W-SW 0,00 h 0 W/m 36,1 km/h (5 Bft)
05.12.2013 19:00 3,7 C 85 % 1020,0 hPa 0,0 l/m W-SW 0,00 h 0 W/m 43,0 km/h (6 Bft)
05.12.2013 20:00 3,7 C 84 % 1019,3 hPa 0,0 l/m W-SW 0,00 h 0 W/m 45,8 km/h (6 Bft)
05.12.2013 21:00 4,0 C 82 % 1019,2 hPa 0,0 l/m W-SW 0,00 h 0 W/m 41,6 km/h (6 Bft)
05.12.2013 22:00 4,2 C 80 % 1019,1 hPa 0,0 l/m W 0,00 h 0 W/m 44,8 km/h (6 Bft)
05.12.2013 23:00 3,9 C 82 % 1018,8 hPa 0,0 l/m W-SW 0,00 h 0 W/m 35,3 km/h (5 Bft)
06.12.2013 00:00 3,8 C 83 % 1018,6 hPa 0,0 l/m W-SW 0,00 h 0 W/m 34,9 km/h (5 Bft)
06.12.2013 01:00 3,8 C 83 % 1018,7 hPa 0,0 l/m SW 0,00 h 0 W/m 34,7 km/h (5 Bft)
06.12.2013 02:00 3,4 C 87 % 1018,9 hPa 0,0 l/m W-SW 0,00 h 0 W/m 34,2 km/h (5 Bft)
06.12.2013 03:00 3,1 C 90 % 1018,8 hPa 0,0 l/m W-SW 0,00 h 0 W/m 31,0 km/h (5 Bft)
06.12.2013 04:00 2,2 C 91 % 1019,4 hPa 0,2 l/m W-NW 0,00 h 0 W/m 19,3 km/h (3 Bft)
06.12.2013 05:00 1,2 C 94 % 1019,8 hPa 0,0 l/m W 0,00 h 0 W/m 16,2 km/h (3 Bft)
06.12.2013 06:00 0,9 C 92 % 1020,0 hPa 0,0 l/m W 0,00 h 0 W/m 20,1 km/h (4 Bft)
06.12.2013 07:00 1,0 C 85 % 1020,7 hPa 0,0 l/m W-SW 0,00 h 0 W/m 19,6 km/h (3 Bft)
06.12.2013 08:00 1,4 C 84 % 1020,9 hPa 0,0 l/m W-SW 0,00 h 16 W/m 20,9 km/h (4 Bft)
06.12.2013 09:00 1,7 C 83 % 1021,2 hPa 0,0 l/m W 0,00 h 63 W/m 22,5 km/h (4 Bft)
06.12.2013 10:00 2,2 C 81 % 1021,4 hPa 0,2 l/m W-SW 0,00 h 36 W/m 21,4 km/h (4 Bft)
06.12.2013 11:00 2,0 C 83 % 1021,6 hPa 2,2 l/m W 0,08 h 139 W/m 24,3 km/h (4 Bft)
06.12.2013 12:00 3,2 C 75 % 1021,4 hPa 0,8 l/m W-SW 0,58 h 272 W/m 28,8 km/h (5 Bft)
06.12.2013 13:00 3,5 C 71 % 1021,2 hPa 0,0 l/m W-SW 0,67 h 259 W/m 31,2 km/h (5 Bft)
06.12.2013 14:00 3,0 C 66 % 1021,3 hPa 0,0 l/m W-NW 0,08 h 56 W/m 27,0 km/h (4 Bft)
06.12.2013 15:00 2,2 C 64 % 1022,3 hPa 0,0 l/m W-NW 0,00 h 42 W/m 34,6 km/h (5 Bft)
06.12.2013 16:00 1,3 C 66 % 1023,8 hPa 0,0 l/m W-NW 0,00 h 6 W/m 24,8 km/h (4 Bft)
06.12.2013 17:00 1,0 C 72 % 1024,8 hPa 0,0 l/m W-NW 0,00 h 0 W/m 18,0 km/h (3 Bft)
06.12.2013 18:00 0,7 C 75 % 1024,9 hPa 0,0 l/m W-SW 0,00 h 0 W/m 20,9 km/h (4 Bft)
06.12.2013 19:00 0,6 C 78 % 1025,0 hPa 0,0 l/m W-SW 0,00 h 0 W/m 22,7 km/h (4 Bft)
06.12.2013 20:00 0,6 C 77 % 1025,3 hPa 0,0 l/m W-SW 0,00 h 0 W/m 27,0 km/h (4 Bft)
06.12.2013 21:00 0,5 C 81 % 1025,9 hPa 0,0 l/m W-SW 0,00 h 0 W/m 20,8 km/h (4 Bft)
06.12.2013 22:00 0,5 C 82 % 1025,9 hPa 0,0 l/m W-NW 0,00 h 0 W/m 16,1 km/h (3 Bft)
06.12.2013 23:00 0,4 C 82 % 1026,4 hPa 0,0 l/m W 0,00 h 0 W/m 23,5 km/h (4 Bft)
07.12.2013 00:00 0,3 C 76 % 1026,9 hPa 0,0 l/m W 0,00 h 0 W/m 21,4 km/h (4 Bft)
07.12.2013 01:00 -0,3 C 86 % 1027,4 hPa 0,2 l/m W 0,00 h 0 W/m 15,3 km/h (3 Bft)
07.12.2013 02:00 -0,4 C 88 % 1027,8 hPa 0,0 l/m W 0,00 h 0 W/m 13,7 km/h (3 Bft)
07.12.2013 03:00 0,1 C 84 % 1028,1 hPa 0,0 l/m W-SW 0,00 h 0 W/m 12,6 km/h (3 Bft)
07.12.2013 04:00 -0,0 C 83 % 1028,3 hPa 0,0 l/m W 0,00 h 0 W/m 16,2 km/h (3 Bft)
07.12.2013 05:00 -0,1 C 81 % 1028,6 hPa 0,0 l/m W 0,00 h 0 W/m 16,1 km/h (3 Bft)
07.12.2013 06:00 -0,5 C 81 % 1029,2 hPa 0,0 l/m W-SW 0,00 h 0 W/m 15,2 km/h (3 Bft)
07.12.2013 07:00 -0,2 C 80 % 1029,4 hPa 0,0 l/m W-SW 0,00 h 5 W/m 14,9 km/h (3 Bft)
07.12.2013 08:00 0,1 C 80 % 1029,7 hPa 0,0 l/m W-SW 0,00 h 19 W/m 14,5 km/h (3 Bft)
07.12.2013 09:00 0,4 C 81 % 1029,9 hPa 0,0 l/m W-SW 0,08 h 85 W/m 18,8 km/h (3 Bft)
07.12.2013 10:00 1,3 C 77 % 1029,7 hPa 0,0 l/m W-SW 0,17 h 123 W/m 20,4 km/h (4 Bft)
07.12.2013 11:00 2,5 C 70 % 1029,2 hPa 0,0 l/m SW 0,58 h 230 W/m 25,6 km/h (4 Bft)
07.12.2013 12:00 3,4 C 67 % 1028,5 hPa 0,0 l/m W-SW 0,58 h 229 W/m 23,7 km/h (4 Bft)
07.12.2013 13:00 3,4 C 68 % 1028,0 hPa 0,0 l/m SW 0,08 h 84 W/m 23,2 km/h (4 Bft)
07.12.2013 14:00 3,5 C 69 % 1027,8 hPa 0,0 l/m W-SW 0,00 h 72 W/m 16,9 km/h (3 Bft)
07.12.2013 15:00 3,6 C 70 % 1027,6 hPa 0,0 l/m W-SW 0,00 h 38 W/m 13,8 km/h (3 Bft)
07.12.2013 16:00 3,3 C 73 % 1027,6 hPa 0,0 l/m SW 0,00 h 9 W/m 7,2 km/h (2 Bft)
07.12.2013 17:00 2,7 C 76 % 1027,8 hPa 0,0 l/m N 0,00 h 0 W/m 2,0 km/h (1 Bft)
07.12.2013 18:00 2,3 C 78 % 1027,8 hPa 0,0 l/m N 0,00 h 0 W/m 2,1 km/h (1 Bft)
07.12.2013 19:00 2,1 C 79 % 1027,6 hPa 0,0 l/m SW 0,00 h 0 W/m 6,2 km/h (2 Bft)
07.12.2013 20:00 2,5 C 77 % 1027,8 hPa 0,0 l/m SW 0,00 h 0 W/m 4,5 km/h (1 Bft)
07.12.2013 21:00 2,1 C 79 % 1027,8 hPa 0,0 l/m SW 0,00 h 0 W/m 4,3 km/h (1 Bft)
07.12.2013 22:00 1,3 C 81 % 1027,8 hPa 0,0 l/m SW 0,00 h 0 W/m 3,7 km/h (1 Bft)
07.12.2013 23:00 0,5 C 83 % 1027,9 hPa 0,0 l/m SW 0,00 h 0 W/m 4,1 km/h (1 Bft)
08.12.2013 00:00 -0,2 C 86 % 1027,8 hPa 0,0 l/m SW 0,00 h 0 W/m 3,6 km/h (1 Bft)
08.12.2013 01:00 -1,0 C 88 % 1027,8 hPa 0,0 l/m N 0,00 h 0 W/m 0,5 km/h (0 Bft)
08.12.2013 02:00 -1,6 C 90 % 1028,0 hPa 0,0 l/m N 0,00 h 0 W/m 0,4 km/h (0 Bft)
08.12.2013 03:00 -1,9 C 91 % 1028,1 hPa 0,0 l/m N 0,00 h 0 W/m 0,4 km/h (0 Bft)
08.12.2013 04:00 -2,3 C 91 % 1028,0 hPa 0,0 l/m SW 0,00 h 0 W/m 2,9 km/h (1 Bft)
08.12.2013 05:00 -2,1 C 93 % 1028,1 hPa 0,0 l/m SW 0,00 h 0 W/m 3,6 km/h (1 Bft)
08.12.2013 06:00 -1,8 C 94 % 1028,7 hPa 0,0 l/m SW 0,00 h 0 W/m 2,5 km/h (1 Bft)
08.12.2013 07:00 -1,0 C 94 % 1029,1 hPa 0,0 l/m S-SW 0,00 h 0 W/m 10,6 km/h (2 Bft)
08.12.2013 08:00 -0,7 C 94 % 1029,2 hPa 0,0 l/m S-SO 0,00 h 19 W/m 11,6 km/h (2 Bft)
08.12.2013 09:00 -0,4 C 93 % 1029,6 hPa 0,0 l/m S 0,08 h 61 W/m 12,1 km/h (2 Bft)
08.12.2013 10:00 0,7 C 88 % 1030,0 hPa 0,0 l/m S-SW 0,75 h 198 W/m 14,0 km/h (3 Bft)
08.12.2013 11:00 2,7 C 82 % 1029,8 hPa 0,0 l/m SW 1,00 h 356 W/m 11,0 km/h (2 Bft)
08.12.2013 12:00 4,4 C 77 % 1029,5 hPa 0,0 l/m S-SW 0,83 h 275 W/m 9,8 km/h (2 Bft)
08.12.2013 13:00 5,3 C 74 % 1029,1 hPa 0,0 l/m S-SW 1,00 h 288 W/m 8,6 km/h (2 Bft)
08.12.2013 14:00 5,2 C 75 % 1028,6 hPa 0,0 l/m S-SW 1,00 h 200 W/m 11,4 km/h (2 Bft)
08.12.2013 15:00 4,3 C 79 % 1028,7 hPa 0,0 l/m S-SW 0,67 h 74 W/m 8,0 km/h (2 Bft)
08.12.2013 16:00 2,6 C 82 % 1028,4 hPa 0,0 l/m SW 0,00 h 8 W/m 5,9 km/h (2 Bft)
08.12.2013 17:00 0,5 C 88 % 1029,0 hPa 0,0 l/m N 0,00 h 0 W/m 0,5 km/h (0 Bft)
08.12.2013 18:00 0,2 C 90 % 1029,4 hPa 0,0 l/m N 0,00 h 0 W/m 0,7 km/h (0 Bft)
08.12.2013 19:00 0,6 C 89 % 1029,5 hPa 0,0 l/m SW 0,00 h 0 W/m 5,3 km/h (1 Bft)
08.12.2013 20:00 0,5 C 88 % 1029,9 hPa 0,0 l/m S-SW 0,00 h 0 W/m 5,1 km/h (1 Bft)
08.12.2013 21:00 -0,4 C 92 % 1030,4 hPa 0,0 l/m S-SW 0,00 h 0 W/m 1,9 km/h (1 Bft)
08.12.2013 22:00 -0,6 C 93 % 1030,8 hPa 0,0 l/m S-SW 0,00 h 0 W/m 3,5 km/h (1 Bft)
08.12.2013 23:00 -0,5 C 93 % 1031,2 hPa 0,0 l/m S-SW 0,00 h 0 W/m 3,1 km/h (1 Bft)
Min-Datum _ 03.12.13 06.12.13 06.12.13 - - - - 03.12.13
_ Min-Zeit 22:10 15:15 00:30 - - - - 04:20
Minimum _ -2,4 C 63 % 1018,3 hPa - - - - 0,0 km/h (0 Bft)
Max-Datum _ 08.12.13 04.12.13 08.12.13 06.12.13 - 02.12.13 06.12.13 05.12.13
_ Max-Zeit 13:30 07:45 23:55 11:10 - 08:05 12:40 22:05
Maximum _ 5,6 C 100 % 1031,5 hPa 2,2 l/m - 0,08 h 452 W/m 56,3 km/h
W-SW (7 Bft)
Durchschnitt _ 0,7 C 88 % 1027,3 hPa #3,6 l/m S-SW #20:15 h 112 W/m 12,8 km/h (3 Bft)